Valdosta, GA

4:00 AM EDT on July 24, 2016 (GMT -0400)
Valdosta Regional

Weather History for KVLD - February, 2013

Change the Weather History Date:

Saturday, February 16, 2013

  Actual Average Record
Temperature  
Mean Temperature 47 °F 54 °F  
Max Temperature 57 °F 67 °F 70 °F (2014)
Min Temperature 36 °F 42 °F 34 °F (2014)
Degree Days  
Heating Degree Days 18 11  
Month to date heating degree days 135 197  
Since 1 July heating degree days 764 1266  
Moisture  
Dew Point 31 °F    
Average Humidity 59    
Maximum Humidity 89    
Minimum Humidity 28    
Precipitation  
Precipitation 0.02 in 0.17 in 1.26 in (2016)
Month to date precipitation 0.52 1.61  
Year to date precipitation 1.28 6.18  
Sea Level Pressure  
Sea Level Pressure 30.05 in    
Wind  
Wind Speed 4 mph (NW)    
Max Wind Speed 16 mph    
Max Gust Speed 29 mph    
Visibility 10 miles    
Events Rain    
T = Trace of Precipitation, MM = Missing Value Source: NWS Daily Summary

Daily Weather History Graph

Daily Weather History Graph

Search for Another Location

Airport or City:

Trip Planner

Search our weather history database for the weather conditions in past years. The results will help you decide how hot, cold, wet, or windy it might be!

Date:

Astronomy

Feb. 16, 2013 Rise Set
Actual Time 7:12 AM EST 6:22 PM EST
Civil Twilight 6:48 AM EST 6:46 PM EST
Nautical Twilight 6:19 AM EST 7:14 PM EST
Astronomical Twilight 5:51 AM EST 7:42 PM EST
Moon 10:54 AM EST (2/16) No Moon Set
Length of Visible Light 11h 58m
Length of Day
11h 09m
Waxing Crescent, 39% of the Moon is Illuminated
Feb 16
Waxing Crescent
Feb 17
First Quarter
Feb 25
Full
Mar 4
Last Quarter
Mar 11
New

Hourly Weather History & Observations

Time (EST) Temp. Windchill Dew Point Humidity Pressure Visibility Wind Dir Wind Speed Gust Speed Precip Events Conditions
12:53 AM 41.0 °F - 36.0 °F 82% 30.04 in 9.0 mi Calm Calm - N/A   Clear
1:53 AM 41.0 °F - 36.0 °F 82% 30.02 in 10.0 mi Calm Calm - N/A   Clear
2:53 AM 41.0 °F - 37.0 °F 86% 30.00 in 9.0 mi Calm Calm - N/A   Clear
3:53 AM 42.1 °F - 37.9 °F 85% 29.99 in 10.0 mi Calm Calm - N/A   Clear
4:53 AM 43.0 °F - 39.0 °F 86% 29.98 in 10.0 mi Calm Calm - N/A   Clear
5:53 AM 46.0 °F 44.8 °F 39.0 °F 76% 29.98 in 10.0 mi Variable 3.5 mph - N/A   Clear
6:53 AM 45.0 °F - 39.0 °F 80% 29.98 in 10.0 mi Calm Calm - N/A   Clear
7:53 AM 46.9 °F - 39.9 °F 77% 30.01 in 10.0 mi Calm Calm - N/A   Clear
8:53 AM 48.9 °F - 39.0 °F 69% 30.02 in 10.0 mi Variable 4.6 mph - N/A   Clear
9:53 AM 51.1 °F - 39.0 °F 63% 30.06 in 10.0 mi NW 8.1 mph - N/A   Overcast
10:53 AM 48.9 °F - 37.0 °F 64% 30.09 in 10.0 mi NW 10.4 mph 23.0 mph 0.00 in Rain Light Rain
11:53 AM 45.0 °F 41.8 °F 37.9 °F 76% 30.09 in 8.0 mi Variable 5.8 mph - 0.01 in Rain Light Rain
12:01 PM 44.6 °F 42.2 °F 37.4 °F 76% 30.06 in 6.0 mi Variable 4.6 mph - 0.00 in Rain Light Rain
12:53 PM 46.9 °F - 39.0 °F 74% 30.05 in 10.0 mi Calm Calm - 0.01 in   Mostly Cloudy
1:53 PM 53.1 °F - 37.9 °F 57% 30.01 in 10.0 mi Variable 4.6 mph - N/A   Mostly Cloudy
2:53 PM 48.9 °F - 36.0 °F 61% 30.00 in 10.0 mi Variable 5.8 mph - 0.00 in Rain Light Rain
3:00 PM 51.8 °F - 37.4 °F 58% 29.97 in 10.0 mi Variable 4.6 mph - 0.00 in Rain Light Rain
3:53 PM 55.9 °F - 30.0 °F 37% 29.99 in 10.0 mi Variable 6.9 mph 20.7 mph 0.00 in   Mostly Cloudy
4:53 PM 55.0 °F - 26.1 °F 33% 30.01 in 10.0 mi Variable 6.9 mph - N/A   Mostly Cloudy
5:53 PM 50.0 °F - 21.0 °F 32% 30.04 in 10.0 mi NW 13.8 mph 21.9 mph N/A   Scattered Clouds
6:53 PM 46.9 °F - 19.0 °F 33% 30.08 in 10.0 mi WNW 6.9 mph - N/A   Partly Cloudy
7:53 PM 45.0 °F 41.8 °F 14.0 °F 29% 30.11 in 10.0 mi Variable 5.8 mph - N/A   Clear
8:53 PM 44.1 °F 42.5 °F 15.1 °F 31% 30.14 in 10.0 mi NW 3.5 mph - N/A   Clear
9:53 PM 41.0 °F 39.0 °F 15.1 °F 35% 30.18 in 10.0 mi Variable 3.5 mph - N/A   Clear
10:53 PM 39.0 °F 36.8 °F 16.0 °F 39% 30.21 in 10.0 mi Variable 3.5 mph - N/A   Clear
11:53 PM 37.0 °F - 17.1 °F 44% 30.22 in 10.0 mi Calm Calm - N/A   Clear